Miscellaneous Local Product
Issued by NWS Hastings, NE

Home | Current Version | Previous Version | Graphics & Text | Print | Product List | Glossary On
Versions: 1 2 3 4 5 6 7 8 9 10 11 12 13 14 15 16 17 18 19 20 21 22 23 24 25 26 27 28 29 30 31 32 33 34 35 36 37 38 39 40 41 42 43 44 45 46 47 48 49 50
723
AXUS43 KGID 231702
MISGRI

GID CWA HOURLY WEATHER ROUNDUP
NATIONAL WEATHER SERVICE HASTINGS NE
1100 AM CST THU NOV 23 2017

NOTE: "FAIR" INDICATES FEW OR NO CLOUDS BELOW 12,000 FEET WITH NO
SIGNIFICANT WEATHER AND/OR OBSTRUCTIONS TO VISIBILITY.

...SOUTH CENTRAL NEBRASKA...

CITY           SKY/WX    TMP DP  RH WIND       PRES   REMARKS
GRAND ISLAND   SUNNY     58  41  53 W7        30.04F
KEARNEY        SUNNY     61  41  47 SW7       30.05F
HASTINGS       SUNNY     60  40  47 SW3       30.05F
ORD            SUNNY     60  41  49 W10       30.01F
YORK           SUNNY     59  41  51 SW3       30.03F
AURORA         SUNNY     60  41  48 SW7       30.03F
LEXINGTON      SUNNY     57  41  56 W6        30.06F
HOLDREGE       SUNNY     62  42  48 W3        30.06F
HEBRON         SUNNY     60  39  46 CALM      30.05S

...NEBRASKA PANHANDLE...

CITY           SKY/WX    TMP DP  RH WIND       PRES   REMARKS
CHADRON        SUNNY     56  42  59 SW6       30.01F
ALLIANCE       CLOUDY    59  43  55 W18       30.04F
SCOTTSBLUFF    CLOUDY    54  40  59 VRB5      30.07F
SIDNEY         CLOUDY    61  40  45 W12       30.11F

...WESTERN AND NORTH CENTRAL NEBRASKA...

CITY           SKY/WX    TMP DP  RH WIND       PRES   REMARKS
VALENTINE      SUNNY     62  41  46 W12       29.96F
AINSWORTH      SUNNY     63  42  47 W12       29.97F
ONEILL         CLOUDY    60  44  56 SW9       29.98F
BROKEN BOW     SUNNY     62  42  47 W8        30.02F
IMPERIAL       SUNNY     62  42  47 W10       30.10F
NORTH PLATTE   SUNNY     55  41  59 W5        30.06F
MCCOOK         SUNNY     54  42  64 W9        30.09S

...EASTERN NEBRASKA...

CITY           SKY/WX    TMP DP  RH WIND       PRES   REMARKS
NORFOLK        CLOUDY    54  40  59 S5        29.99F
SO SIOUX CITY  CLOUDY    46  33  60 NW7       30.01S
TEKAMAH        SUNNY     49  33  54 CALM      30.01F
COLUMBUS       CLOUDY    52  38  58 MISG      30.03F
ALBION         SUNNY     61  42  49 SW6       30.01S
OMAHA EPPLEY   MOSUNNY   50  34  54 N6        30.02F
OFFUTT AFB     SUNNY     49  34  55 CALM      30.02S
MILLARD        SUNNY     53  36  52 CALM      30.02F
LINCOLN        SUNNY     56  37  49 CALM      30.04F
NEBRASKA CITY  SUNNY     55  37  52 N6        30.02F
BEATRICE       SUNNY     56  38  50 W3        30.03F
FALLS CITY     SUNNY     54  35  48 CALM      30.03S

...NORTHERN KANSAS...

CITY           SKY/WX    TMP DP  RH WIND       PRES   REMARKS
GOODLAND       CLOUDY    63  41  44 W12       30.13S
HILL CITY      CLOUDY    62  43  49 W7        30.09F
NORTON         SUNNY     61  37  41 NW6       30.07F
PHILLIPSBURG   SUNNY     57  39  51 NW6       30.08S
SMITH CENTER   SUNNY     55  37  50 CALM      30.08S
HAYS           SUNNY     60  41  49 W7        30.08F
RUSSELL        SUNNY     61  41  47 VRB3      30.07S
CONCORDIA      SUNNY     59  38  45 CALM      30.05F
SALINA         SUNNY     57  37  47 CALM      30.07F
TOPEKA         SUNNY     51  31  46 W6        30.05F



USA.gov is the U.S. government's official web portal to all federal, state and local government web resources and services.